Scottsbluff, NE

5:28 AM MDT on July 28, 2017 (GMT -0600)
Heilig

Weather History for KBFF - January, 1998

Change the Weather History Date:

Thursday, January 1, 1998

  Actual Average Record
Temperature  
Mean Temperature 47 °F 26 °F  
Max Temperature 64 °F 40 °F 64 °F (1998)
Min Temperature 30 °F 13 °F -31 °F (1924)
Degree Days  
Heating Degree Days 18 39  
Month to date heating degree days 39  
Since 1 July heating degree days 2811  
Cooling Degree Days 0 0  
Month to date cooling degree days 0  
Year to date cooling degree days 0  
Moisture  
Dew Point 21 °F    
Average Humidity 43    
Maximum Humidity 66    
Minimum Humidity 20    
Precipitation  
Precipitation 0.00 in 0.01 in 0.47 in (1976)
Month to date precipitation 0.01  
Year to date precipitation 0.01  
Snow  
Snow 0.00 in 0.20 in 4.70 in (1976)
Month to date snowfall 0.2  
Since 1 July snowfall 16.2  
Snow Depth -    
Sea Level Pressure  
Sea Level Pressure 29.83 in    
Wind  
Wind Speed 9 mph (NW)    
Max Wind Speed 21 mph    
Max Gust Speed 24 mph    
Visibility 10 miles    
Events      
T = Trace of Precipitation, MM = Missing Value Source: NWS Daily Summary

Daily Weather History Graph

Daily Weather History Graph

Search for Another Location

Airport or City:

Trip Planner

Search our weather history database for the weather conditions in past years. The results will help you decide how hot, cold, wet, or windy it might be!

Date:

Astronomy

Jan. 01, 1998 Rise Set
Actual Time 7:22 AM MST 4:34 PM MST
Civil Twilight 6:50 AM MST 5:05 PM MST
Nautical Twilight 6:15 AM MST 5:40 PM MST
Astronomical Twilight 5:41 AM MST 6:14 PM MST
Moon 9:24 AM MST (1/1) 8:16 PM MST (1/1)
Length of Visible Light 10h 15m
Length of Day
9h 12m
Waxing Crescent, 12% of the Moon is Illuminated
Jan 1
Waxing Crescent
Jan 5
First Quarter
Jan 12
Full
Jan 20
Last Quarter
Jan 27
New

Hourly Weather History & Observations

Time (MST) Temp. Windchill Dew Point Humidity Pressure Visibility Wind Dir Wind Speed Gust Speed Precip Events Conditions
1:54 AM 39.0 °F 32.8 °F 21.9 °F 50% 29.84 in 10.0 mi WNW 9.2 mph - N/A   Clear
2:54 AM 30.0 °F 24.1 °F 19.9 °F 66% 29.86 in 10.0 mi North 5.8 mph - N/A   Clear
3:54 AM 35.1 °F 28.6 °F 21.0 °F 57% 29.86 in 10.0 mi NNW 8.1 mph - N/A   Clear
4:54 AM 37.0 °F 28.9 °F 21.9 °F 54% 29.88 in 10.0 mi NW 12.7 mph - N/A   Clear
5:54 AM 39.0 °F 32.3 °F 21.0 °F 49% 29.90 in 10.0 mi WNW 10.4 mph - N/A   Clear
6:54 AM 35.1 °F 27.4 °F 21.0 °F 57% 29.92 in 10.0 mi North 10.4 mph - N/A   Clear
7:54 AM 33.1 °F - 19.9 °F 59% 29.95 in 10.0 mi Calm Calm - N/A   Clear
8:54 AM 45.0 °F 39.3 °F 21.9 °F 40% 29.91 in 10.0 mi NNW 11.5 mph - N/A   Clear
9:54 AM 51.1 °F - 21.9 °F 32% 29.92 in 10.0 mi WNW 8.1 mph - N/A   Clear
10:54 AM 55.9 °F - 21.9 °F 27% 29.88 in 10.0 mi WNW 10.4 mph - N/A   Clear
11:54 AM 61.0 °F - 21.0 °F 21% 29.84 in 10.0 mi WNW 17.3 mph - N/A   Clear
12:54 PM 62.1 °F - 21.0 °F 21% 29.78 in 10.0 mi West 13.8 mph 20.7 mph N/A   Clear
1:54 PM 64.0 °F - 21.9 °F 20% 29.77 in 10.0 mi West 11.5 mph - N/A   Clear
2:54 PM 63.0 °F - 21.0 °F 20% 29.78 in 10.0 mi WNW 20.7 mph 24.2 mph N/A   Clear
3:54 PM 59.0 °F - 21.9 °F 24% 29.79 in 10.0 mi WNW 12.7 mph - N/A   Clear
4:54 PM 53.1 °F - 21.0 °F 29% 29.80 in 10.0 mi West 11.5 mph - N/A   Clear
5:54 PM 43.0 °F - 21.0 °F 42% 29.81 in 10.0 mi Calm Calm - N/A   Clear
6:54 PM 37.0 °F 34.5 °F 19.9 °F 50% 29.84 in 10.0 mi ESE 3.5 mph - N/A   Clear
7:54 PM 35.1 °F - 19.0 °F 52% 29.85 in 10.0 mi Calm Calm - N/A   Clear
8:54 PM 35.1 °F 30.1 °F 19.9 °F 54% 29.78 in 10.0 mi East 5.8 mph - N/A   Clear
9:54 PM 34.0 °F 28.8 °F 19.9 °F 56% 29.75 in 10.0 mi North 5.8 mph - N/A   Clear
10:54 PM 32.0 °F 27.5 °F 19.9 °F 61% 29.73 in 10.0 mi NE 4.6 mph - N/A   Clear
11:54 PM 37.0 °F 31.6 °F 21.0 °F 52% 29.69 in 10.0 mi North 6.9 mph - N/A   Clear